Weather History for Morganton, NC

Change the Weather History Date:

Saturday, October 5, 2013

  Actual Average (KHKY) Record (KHKY)
Temperature  
Mean Temperature 70 °F -  
Max Temperature 85 °F 74 °F 107 °F (1996)
Min Temperature 54 °F 50 °F 34 °F (1968)
Cooling Degree Days 4    
Growing Degree Days 20 (Base 50)    
Moisture  
Dew Point 61 °F    
Average Humidity 81    
Maximum Humidity 100    
Minimum Humidity 41    
Precipitation  
Precipitation 0.00 in - - ()
Sea Level Pressure  
Sea Level Pressure 30.17 in    
Wind  
Wind Speed 0 mph (South)    
Max Wind Speed 5 mph    
Max Gust Speed -    
Visibility 7 miles    
Events Fog    
Averages and records for this station are not official NWS values.
T = Trace of Precipitation, MM = Missing Value Source: NWS Daily Summary

Daily Weather History Graph

Daily Weather History Graph

Search for Another Location

Airport:

Trip Planner

Search our weather history database for the weather conditions in past years. The results will help you decide how hot, cold, wet, or windy it might be!

Date:

Astronomy

Oct. 05, 2013 Rise Set
Actual Time 7:24 AM EDT 7:04 PM EDT
Civil Twilight 6:59 AM EDT 7:29 PM EDT
Nautical Twilight 6:29 AM EDT 7:59 PM EDT
Astronomical Twilight 5:59 AM EDT 8:28 PM EDT
Moon 8:00 AM EDT (10/5) 7:25 PM EDT (10/5)
Length of Visible Light 12h 30m
Length of Day
11h 39m
New Moon, 0% of the Moon is Illuminated
Oct 5
New Moon
Oct 11
First Quarter
Oct 18
Full
Oct 26
Last Quarter
Nov 3
New

Hourly Weather History & Observations

Time (EDT) Temp. Heat Index Dew Point Humidity Pressure Visibility Wind Dir Wind Speed Gust Speed Precip Events Conditions
12:15 AM 59.9 °F - 59.7 °F 99% 30.19 in 7.0 mi Calm Calm - N/A   Clear
12:35 AM 59.5 °F - 59.4 °F 99% 30.19 in 7.0 mi Calm Calm - N/A   Clear
12:55 AM 58.6 °F - 58.6 °F 100% 30.19 in 1.5 mi Calm Calm - N/A   Mist
1:15 AM 59.2 °F - 59.2 °F 100% 30.19 in 2.5 mi Calm Calm - N/A   Clear
1:35 AM 58.6 °F - 58.6 °F 100% 30.19 in 0.2 mi Calm Calm - N/A Fog Fog
1:55 AM 59.7 °F - 59.7 °F 100% 30.20 in 7.0 mi Calm Calm - N/A   Clear
2:15 AM 60.8 °F - 60.8 °F 100% 30.19 in 0.8 mi Calm Calm - N/A   Mist
2:35 AM 58.8 °F - 58.8 °F 100% 30.19 in 0.5 mi Calm Calm - N/A Fog Fog
2:55 AM 60.6 °F - 60.6 °F 100% 30.18 in 4.0 mi Calm Calm - N/A   Clear
3:15 AM 57.2 °F - 57.2 °F 100% 30.18 in 1.8 mi Calm Calm - N/A   Mist
3:35 AM 57.6 °F - 57.6 °F 100% 30.17 in 0.5 mi Calm Calm - N/A Fog Fog
3:55 AM 57.6 °F - 57.6 °F 100% 30.17 in 1.0 mi Calm Calm - N/A   Mist
4:15 AM 56.5 °F - 56.5 °F 100% 30.17 in 1.2 mi Calm Calm - N/A   Mist
4:35 AM 56.1 °F - 56.1 °F 100% 30.18 in 0.8 mi Calm Calm - N/A   Mist
4:55 AM 55.9 °F - 55.9 °F 100% 30.18 in 5.0 mi Calm Calm - N/A   Clear
5:15 AM 56.3 °F - 56.3 °F 100% 30.18 in 5.0 mi Calm Calm - N/A   Clear
5:35 AM 55.8 °F - 55.8 °F 100% 30.19 in 5.0 mi Calm Calm - N/A   Scattered Clouds
5:55 AM 56.1 °F - 56.1 °F 100% 30.20 in 3.0 mi Calm Calm - N/A   Scattered Clouds
6:15 AM 55.6 °F - 55.6 °F 100% 30.20 in 5.0 mi Calm Calm - N/A   Clear
6:35 AM 56.3 °F - 56.3 °F 100% 30.20 in 4.0 mi Calm Calm - N/A   Clear
6:55 AM 55.2 °F - 55.2 °F 100% 30.20 in 3.0 mi Calm Calm - N/A   Clear
7:15 AM 55.8 °F - 55.8 °F 100% 30.21 in 5.0 mi Calm Calm - N/A   Clear
7:35 AM 54.5 °F - 54.5 °F 100% 30.21 in 0.2 mi Calm Calm - N/A Fog Fog
7:55 AM 55.4 °F - 55.4 °F 100% 30.22 in 0.2 mi Calm Calm - N/A Fog Fog
8:15 AM 58.3 °F - 58.3 °F 100% 30.22 in 3.0 mi Calm Calm - N/A   Clear
8:35 AM 61.7 °F - 61.7 °F 100% 30.22 in 10.0 mi Calm Calm - N/A   Clear
8:55 AM 63.1 °F - 62.4 °F 97% 30.22 in 10.0 mi Calm Calm - N/A   Clear
9:15 AM 63.9 °F - 61.7 °F 93% 30.22 in 10.0 mi Calm Calm - N/A   Clear
9:35 AM 65.3 °F - 62.4 °F 90% 30.22 in 10.0 mi Calm Calm - N/A   Clear
9:55 AM 67.5 °F - 62.2 °F 83% 30.22 in 10.0 mi Calm Calm - N/A   Clear
10:15 AM 70.7 °F - 62.6 °F 75% 30.22 in 10.0 mi Calm Calm - N/A   Clear
10:35 AM 71.6 °F - 62.2 °F 72% 30.22 in 10.0 mi Calm Calm - N/A   Clear
10:55 AM 73.4 °F - 61.9 °F 67% 30.22 in 10.0 mi Calm Calm - N/A   Clear
11:15 AM 76.1 °F - 63.0 °F 64% 30.21 in 10.0 mi Calm Calm - N/A   Clear
11:35 AM 77.0 °F - 63.7 °F 63% 30.21 in 10.0 mi Calm Calm - N/A   Clear
11:55 AM 77.9 °F - 63.1 °F 60% 30.21 in 10.0 mi Calm Calm - N/A   Clear
12:15 PM 78.8 °F - 63.0 °F 58% 30.20 in 10.0 mi Calm Calm - N/A   Clear
12:35 PM 81.3 °F 82.2 °F 61.7 °F 51% 30.20 in 10.0 mi Calm Calm - N/A   Clear
12:55 PM 82.0 °F 83.0 °F 62.1 °F 51% 30.20 in 10.0 mi Calm Calm - N/A   Clear
1:15 PM 82.8 °F 83.4 °F 61.7 °F 49% 30.19 in 10.0 mi Calm Calm - N/A   Clear
1:35 PM 83.1 °F 83.3 °F 60.4 °F 46% 30.17 in 10.0 mi Calm Calm - N/A   Clear
1:55 PM 84.0 °F 84.2 °F 60.4 °F 45% 30.17 in 10.0 mi South 3.5 mph - N/A   Scattered Clouds
2:15 PM 83.5 °F 83.6 °F 60.1 °F 45% 30.16 in 10.0 mi Calm Calm - N/A   Scattered Clouds
2:35 PM 84.2 °F 84.2 °F 59.9 °F 44% 30.15 in 10.0 mi Calm Calm - N/A   Scattered Clouds
2:55 PM 84.2 °F 84.0 °F 59.4 °F 43% 30.15 in 10.0 mi WSW 3.5 mph - N/A   Scattered Clouds
3:15 PM 84.6 °F 84.2 °F 59.2 °F 42% 30.14 in 10.0 mi SE 4.6 mph - N/A   Scattered Clouds
3:35 PM 85.1 °F 84.8 °F 59.7 °F 42% 30.14 in 10.0 mi East 3.5 mph - N/A   Clear
3:55 PM 85.1 °F 84.8 °F 59.7 °F 42% 30.14 in 10.0 mi SSW 3.5 mph - N/A   Clear
4:15 PM 85.1 °F 84.6 °F 59.2 °F 41% 30.13 in 10.0 mi South 4.6 mph - N/A   Clear
4:35 PM 83.1 °F 83.5 °F 60.8 °F 47% 30.13 in 10.0 mi Calm Calm - N/A   Clear
4:55 PM 84.4 °F 84.4 °F 60.1 °F 44% 30.12 in 10.0 mi South 4.6 mph - N/A   Clear
5:15 PM 82.6 °F 83.1 °F 61.2 °F 48% 30.12 in 10.0 mi Calm Calm - N/A   Clear
5:35 PM 82.8 °F 83.6 °F 62.2 °F 50% 30.12 in 10.0 mi Calm Calm - N/A   Scattered Clouds
5:55 PM 82.6 °F 83.6 °F 62.6 °F 51% 30.12 in 10.0 mi South 3.5 mph - N/A   Scattered Clouds
6:15 PM 81.0 °F 82.3 °F 63.5 °F 55% 30.12 in 10.0 mi Calm Calm - N/A   Clear
6:35 PM 79.0 °F - 64.6 °F 61% 30.12 in 10.0 mi SSE 3.5 mph - N/A   Clear
6:55 PM 75.9 °F - 65.8 °F 71% 30.12 in 10.0 mi Calm Calm - N/A   Clear
7:15 PM 71.1 °F - 67.6 °F 89% 30.12 in 10.0 mi Calm Calm - N/A   Clear
7:35 PM 69.3 °F - 66.9 °F 92% 30.12 in 10.0 mi Calm Calm - N/A   Clear
7:55 PM 67.8 °F - 65.7 °F 93% 30.13 in 10.0 mi Calm Calm - N/A   Clear
8:15 PM 66.9 °F - 65.1 °F 94% 30.13 in 10.0 mi Calm Calm - N/A   Clear
8:35 PM 66.4 °F - 64.6 °F 94% 30.13 in 10.0 mi Calm Calm - N/A   Clear
8:55 PM 65.5 °F - 64.0 °F 95% 30.14 in 10.0 mi Calm Calm - N/A   Clear
9:15 PM 65.3 °F - 63.9 °F 95% 30.14 in 10.0 mi Calm Calm - N/A   Clear
9:35 PM 63.7 °F - 62.8 °F 97% 30.15 in 10.0 mi Calm Calm - N/A   Clear
9:55 PM 63.1 °F - 62.6 °F 98% 30.15 in 7.0 mi Calm Calm - N/A   Clear
10:15 PM 63.5 °F - 63.0 °F 98% 30.15 in 7.0 mi Calm Calm - N/A   Clear
10:35 PM 63.7 °F - 63.1 °F 98% 30.15 in 10.0 mi Calm Calm - N/A   Clear
10:55 PM 63.3 °F - 62.8 °F 98% 30.15 in 7.0 mi Calm Calm - N/A   Clear
11:15 PM 62.4 °F - 62.1 °F 99% 30.14 in 5.0 mi Calm Calm - N/A   Clear
11:35 PM 62.1 °F - 61.9 °F 99% 30.14 in 4.0 mi Calm Calm - N/A   Clear
11:55 PM 61.2 °F - 61.2 °F 100% 30.14 in 7.0 mi Calm Calm - N/A   Clear